Powrót do katalogu

STARLINK-34215

AktywnyŁącznośćVLEO
NORAD 64252·PAYLOAD·🇺🇸 United States

Wystrzelony Jun 3, 2025 z Cape Canaveral Space Force Station

Loading…

Następne Przeloty (najbliższe 24 godziny)

TLE

ŚwieżeSource: CelesTrak SupGP

Epoka: Sep 14, 2026, 22:25 UTC

1 64252C 25119V   26257.93451389 -.00013646  00000+0 -49424-3 0  2575
2 64252  43.0022 318.2912 0001458 265.1564  32.6292 15.27585384    18

Śledź STARLINK-34215 w czasie rzeczywistym z AllMySat

Download on the App Store